When you browse on this site, cookies collect data to enhance your experience and personalize the content and advertising you see.
Visit our Privacy Policy to learn more. By continuing to use the site, you agree to this use of cookies and data.
  • en France
  • Liste des pays
  • À 7 jours
  • Température de l'eau
  • Carte satellitaire
  • Carte météo
  • Widgets météo
  • user-avatar
    Se connecter

    Météo par heure à Bihać

    Ce jour, 25 Mai, Samedi

    Heure Température Précipitation Vent Pression Humidité
    00:00 +12°C° 0 mm 1 m/s 708 mmHg 83%
    01:00 +12°C° 0 mm 1 m/s 708 mmHg 81%
    02:00 +12°C° 0 mm 1 m/s 708 mmHg 81%
    03:00 +11°C° 0 mm 1 m/s 708 mmHg 80%
    04:00 +11°C° 0 mm 1 m/s 708 mmHg 80%
    05:00 +13°C° 0 mm 1 m/s 708 mmHg 77%
    06:00 +15°C° 0 mm 1 m/s 709 mmHg 74%
    07:00 +18°C° 0 mm 1 m/s 709 mmHg 68%
    08:00 +19°C° 0 mm 1 m/s 710 mmHg 63%
    09:00 +21°C° 0 mm 1 m/s 710 mmHg 57%
    10:00 +22°C° 0 mm 1 m/s 710 mmHg 52%
    11:00 +22°C° 0.2 mm 1 m/s 710 mmHg 55%
    12:00 +22°C° 0.2 mm 1 m/s 710 mmHg 57%
    13:00 +21°C° 0.2 mm 2 m/s 710 mmHg 60%
    14:00 +22°C° 0.8 mm 1 m/s 710 mmHg 65%
    15:00 +21°C° 0.8 mm 1 m/s 709 mmHg 71%
    16:00 +20°C° 0.8 mm 1 m/s 709 mmHg 77%
    17:00 +19°C° 0.8 mm 1 m/s 709 mmHg 81%
    18:00 +18°C° 0.8 mm 1 m/s 709 mmHg 85%
    19:00 +16°C° 0.8 mm 1 m/s 708 mmHg 89%
    20:00 +15°C° 0 mm 1 m/s 709 mmHg 90%
    21:00 +14°C° 0 mm 1 m/s 709 mmHg 92%
    22:00 +13°C° 0 mm 1 m/s 709 mmHg 93%
    23:00 +13°C° 0 mm 1 m/s 709 mmHg 93%

    Demain, 26 Mai, Dimanche

    Heure Température Précipitation Vent Pression Humidité
    00:00 +13°C° 0 mm 1 m/s 709 mmHg 93%
    01:00 +13°C° 0 mm 1 m/s 709 mmHg 93%
    02:00 +13°C° 0 mm 1 m/s 709 mmHg 92%
    03:00 +12°C° 0 mm 1 m/s 709 mmHg 91%
    04:00 +12°C° 0 mm 1 m/s 708 mmHg 90%
    05:00 +14°C° 0 mm 1 m/s 709 mmHg 86%
    06:00 +15°C° 0 mm 1 m/s 709 mmHg 82%
    07:00 +16°C° 0 mm 1 m/s 709 mmHg 78%
    08:00 +18°C° 0 mm 1 m/s 709 mmHg 73%
    09:00 +19°C° 0 mm 1 m/s 710 mmHg 68%
    10:00 +19°C° 0 mm 2 m/s 710 mmHg 63%
    11:00 +19°C° 0 mm 2 m/s 710 mmHg 61%
    12:00 +20°C° 0 mm 2 m/s 710 mmHg 60%
    13:00 +21°C° 0 mm 2 m/s 710 mmHg 59%
    14:00 +20°C° 0.2 mm 2 m/s 710 mmHg 64%
    15:00 +19°C° 0.2 mm 2 m/s 710 mmHg 70%
    16:00 +18°C° 0.2 mm 2 m/s 709 mmHg 76%
    17:00 +17°C° 0.1 mm 2 m/s 709 mmHg 80%
    18:00 +16°C° 0.1 mm 1 m/s 709 mmHg 84%
    19:00 +15°C° 0.1 mm 1 m/s 709 mmHg 89%
    20:00 +15°C° 0.1 mm 1 m/s 709 mmHg 89%
    21:00 +15°C° 0.1 mm 1 m/s 709 mmHg 89%
    22:00 +15°C° 0.1 mm 1 m/s 709 mmHg 90%
    23:00 +14°C° 0 mm 1 m/s 709 mmHg 89%

    Après-demain, 27 Mai, Lundi

    Heure Température Précipitation Vent Pression Humidité
    00:00 +14°C° 0 mm 1 m/s 708 mmHg 88%
    01:00 +14°C° 0 mm 1 m/s 708 mmHg 88%
    02:00 +14°C° 0 mm 1 m/s 708 mmHg 86%
    03:00 +14°C° 0 mm 1 m/s 707 mmHg 85%
    04:00 +14°C° 0 mm 1 m/s 707 mmHg 83%
    05:00 +15°C° 0 mm 1 m/s 707 mmHg 82%
    06:00 +16°C° 0 mm 1 m/s 707 mmHg 80%
    07:00 +18°C° 0 mm 1 m/s 707 mmHg 79%
    08:00 +18°C° 0.1 mm 2 m/s 708 mmHg 75%
    09:00 +19°C° 0.1 mm 4 m/s 708 mmHg 70%
    10:00 +19°C° 0.1 mm 5 m/s 708 mmHg 66%
    11:00 +18°C° 0.6 mm 4 m/s 708 mmHg 75%
    12:00 +17°C° 0.6 mm 3 m/s 707 mmHg 83%
    13:00 +15°C° 0.6 mm 2 m/s 707 mmHg 91%
    14:00 +15°C° 0.3 mm 2 m/s 707 mmHg 91%
    15:00 +15°C° 0.3 mm 2 m/s 706 mmHg 90%
    16:00 +15°C° 0.3 mm 2 m/s 706 mmHg 90%
    17:00 +15°C° 0 mm 2 m/s 706 mmHg 88%
    18:00 +15°C° 0 mm 1 m/s 705 mmHg 86%
    19:00 +15°C° 0 mm 1 m/s 705 mmHg 84%
    20:00 +15°C° 0 mm 1 m/s 705 mmHg 85%
    21:00 +15°C° 0 mm 1 m/s 705 mmHg 86%
    22:00 +14°C° 0 mm 1 m/s 705 mmHg 87%
    23:00 +14°C° 0 mm 1 m/s 704 mmHg 88%

    28 Mai, Mardi

    Heure Température Précipitation Vent Pression Humidité
    00:00 +13°C° 0 mm 1 m/s 704 mmHg 89%
    01:00 +12°C° 0 mm 1 m/s 703 mmHg 91%
    02:00 +12°C° 0 mm 1 m/s 703 mmHg 89%
    03:00 +12°C° 0 mm 1 m/s 702 mmHg 88%
    04:00 +12°C° 0 mm 1 m/s 702 mmHg 87%
    05:00 +13°C° 0.4 mm 2 m/s 702 mmHg 88%
    06:00 +13°C° 0.4 mm 2 m/s 702 mmHg 89%
    07:00 +14°C° 0.4 mm 2 m/s 702 mmHg 89%
    08:00 +14°C° 0.6 mm 3 m/s 702 mmHg 89%
    09:00 +15°C° 0.6 mm 4 m/s 702 mmHg 89%
    10:00 +17°C° 0.6 mm 4 m/s 702 mmHg 88%
    11:00 +16°C° 0.8 mm 5 m/s 702 mmHg 87%
    12:00 +16°C° 0.8 mm 5 m/s 702 mmHg 85%
    13:00 +17°C° 0.8 mm 6 m/s 702 mmHg 83%
    14:00 +16°C° 0.3 mm 5 m/s 702 mmHg 85%
    15:00 +16°C° 0.3 mm 5 m/s 701 mmHg 87%
    16:00 +15°C° 0.3 mm 4 m/s 701 mmHg 88%
    17:00 +15°C° 0.1 mm 4 m/s 701 mmHg 90%
    18:00 +14°C° 0.1 mm 4 m/s 701 mmHg 91%
    19:00 +14°C° 0.1 mm 3 m/s 701 mmHg 92%
    20:00 +14°C° 0.1 mm 3 m/s 702 mmHg 94%
    21:00 +13°C° 0.1 mm 3 m/s 702 mmHg 95%
    22:00 +13°C° 0.1 mm 3 m/s 702 mmHg 97%
    23:00 +14°C° 1.1 mm 2 m/s 702 mmHg 97%

    29 Mai, Mercredi

    Heure Température Précipitation Vent Pression Humidité
    00:00 +14°C° 1.1 mm 2 m/s 702 mmHg 97%
    01:00 +14°C° 1.1 mm 2 m/s 702 mmHg 97%
    02:00 +14°C° 1.6 mm 2 m/s 702 mmHg 97%
    03:00 +14°C° 1.6 mm 2 m/s 702 mmHg 97%
    04:00 +14°C° 1.6 mm 1 m/s 702 mmHg 97%
    05:00 +14°C° 3.9 mm 2 m/s 703 mmHg 96%
    06:00 +13°C° 3.9 mm 2 m/s 703 mmHg 96%
    07:00 +11°C° 3.9 mm 3 m/s 703 mmHg 96%
    08:00 +10°C° 4.2 mm 3 m/s 703 mmHg 95%
    09:00 +9°C° 4.2 mm 3 m/s 703 mmHg 95%
    10:00 +8°C° 4.2 mm 3 m/s 704 mmHg 95%
    11:00 +8°C° 5.1 mm 3 m/s 704 mmHg 94%
    12:00 +8°C° 5.1 mm 3 m/s 704 mmHg 94%
    13:00 +7°C° 5.1 mm 3 m/s 705 mmHg 94%
    14:00 +9°C° 0.2 mm 3 m/s 705 mmHg 89%
    15:00 +11°C° 0.2 mm 3 m/s 706 mmHg 85%
    16:00 +12°C° 0.2 mm 3 m/s 707 mmHg 80%
    17:00 +12°C° 0 mm 3 m/s 707 mmHg 82%
    18:00 +11°C° 0 mm 3 m/s 707 mmHg 85%
    19:00 +11°C° 0 mm 3 m/s 708 mmHg 87%
    20:00 +10°C° 0 mm 3 m/s 708 mmHg 88%
    21:00 +9°C° 0 mm 3 m/s 709 mmHg 89%
    22:00 +9°C° 0 mm 3 m/s 709 mmHg 90%
    23:00 +9°C° 0 mm 3 m/s 709 mmHg 91%

    30 Mai, Jeudi

    Heure Température Précipitation Vent Pression Humidité
    00:00 +9°C° 0 mm 3 m/s 709 mmHg 91%
    01:00 +8°C° 0 mm 3 m/s 710 mmHg 91%
    02:00 +9°C° 0.2 mm 3 m/s 710 mmHg 91%
    03:00 +9°C° 0.2 mm 3 m/s 710 mmHg 92%
    04:00 +9°C° 0.2 mm 3 m/s 710 mmHg 92%
    05:00 +9°C° 0.2 mm 3 m/s 711 mmHg 90%
    06:00 +10°C° 0.2 mm 3 m/s 711 mmHg 89%
    07:00 +11°C° 0.2 mm 4 m/s 712 mmHg 87%
    08:00 +12°C° 0.1 mm 5 m/s 712 mmHg 81%
    09:00 +13°C° 0.1 mm 5 m/s 712 mmHg 74%
    10:00 +14°C° 0.1 mm 6 m/s 713 mmHg 68%
    11:00 +14°C° 0 mm 6 m/s 713 mmHg 65%
    12:00 +15°C° 0 mm 6 m/s 713 mmHg 62%
    13:00 +16°C° 0 mm 6 m/s 714 mmHg 59%
    14:00 +15°C° 0 mm 5 m/s 713 mmHg 61%
    15:00 +15°C° 0 mm 5 m/s 713 mmHg 63%
    16:00 +15°C° 0 mm 4 m/s 713 mmHg 65%
    17:00 +14°C° 0 mm 3 m/s 713 mmHg 71%
    18:00 +13°C° 0 mm 3 m/s 713 mmHg 76%
    19:00 +13°C° 0 mm 2 m/s 713 mmHg 82%
    20:00 +10°C° 0 mm 2 m/s 713 mmHg 86%
    21:00 +9°C° 0 mm 2 m/s 713 mmHg 89%
    22:00 +8°C° 0 mm 2 m/s 713 mmHg 93%
    23:00 +8°C° 0 mm 2 m/s 713 mmHg 93%
    Voir plus